TimeCDT,TemperatureF,Dew PointF,Humidity,Sea Level PressureIn,VisibilityMPH,Wind Direction,Wind SpeedMPH,Gust SpeedMPH,PrecipitationIn,Events,Conditions,WindDirDegrees,DateUTC
12:15 AM,68.0,44.1,42,30.00,10.0,ESE,6.9,-,N/A,,Clear,110,2012-09-22 05:15:00
12:35 AM,66.2,44.6,46,30.01,10.0,East,5.8,-,N/A,,Clear,100,2012-09-22 05:35:00
12:55 AM,66.0,45.3,47,30.01,10.0,East,6.9,-,N/A,,Clear,90,2012-09-22 05:55:00
1:15 AM,65.8,45.5,48,30.01,10.0,East,6.9,-,N/A,,Clear,90,2012-09-22 06:15:00
1:35 AM,64.9,45.5,49,30.02,10.0,East,4.6,-,N/A,,Clear,100,2012-09-22 06:35:00
1:55 AM,64.6,45.5,50,30.02,10.0,Calm,Calm,-,N/A,,Clear,0,2012-09-22 06:55:00
2:15 AM,65.7,45.5,48,30.02,10.0,East,3.5,-,N/A,,Clear,100,2012-09-22 07:15:00
2:35 AM,64.0,45.5,51,30.02,10.0,East,6.9,-,N/A,,Clear,90,2012-09-22 07:35:00
2:55 AM,62.6,45.9,54,30.02,10.0,East,8.1,-,N/A,,Clear,80,2012-09-22 07:55:00
3:15 AM,63.3,45.9,53,30.03,10.0,ENE,6.9,-,N/A,,Clear,70,2012-09-22 08:15:00
3:35 AM,62.2,46.4,56,30.02,10.0,ENE,5.8,-,N/A,,Clear,70,2012-09-22 08:35:00
3:55 AM,62.6,46.2,55,30.03,10.0,East,3.5,-,N/A,,Clear,80,2012-09-22 08:55:00
4:15 AM,61.3,46.4,58,30.03,10.0,Calm,Calm,-,N/A,,Clear,0,2012-09-22 09:15:00
4:35 AM,62.8,46.4,55,30.03,10.0,Calm,Calm,-,N/A,,Clear,0,2012-09-22 09:35:00
4:55 AM,60.1,46.4,61,30.04,10.0,Calm,Calm,-,N/A,,Clear,0,2012-09-22 09:55:00
5:15 AM,60.6,46.4,59,30.04,10.0,Calm,Calm,-,N/A,,Clear,0,2012-09-22 10:15:00
5:35 AM,61.0,46.2,58,30.04,10.0,ENE,3.5,-,N/A,,Clear,60,2012-09-22 10:35:00
5:55 AM,59.7,45.5,59,30.05,10.0,Calm,Calm,-,N/A,,Clear,0,2012-09-22 10:55:00
6:15 AM,60.1,45.3,58,30.05,10.0,Calm,Calm,-,N/A,,Clear,0,2012-09-22 11:15:00
6:35 AM,54.9,45.3,70,30.06,10.0,NW,4.6,-,N/A,,Clear,310,2012-09-22 11:35:00
6:55 AM,56.1,45.9,68,30.08,10.0,Calm,Calm,-,N/A,,Clear,0,2012-09-22 11:55:00
7:15 AM,55.6,44.8,67,30.08,10.0,Calm,Calm,-,N/A,,Clear,0,2012-09-22 12:15:00
7:35 AM,56.1,44.6,65,30.09,10.0,Calm,Calm,-,N/A,,Clear,0,2012-09-22 12:35:00
7:55 AM,55.4,44.6,67,30.10,10.0,Calm,Calm,-,N/A,,Clear,0,2012-09-22 12:55:00
8:15 AM,56.3,45.3,67,30.11,10.0,Calm,Calm,-,N/A,,Clear,0,2012-09-22 13:15:00
8:35 AM,59.4,46.0,61,30.11,10.0,NNW,3.5,-,N/A,,Clear,340,2012-09-22 13:35:00
8:55 AM,62.2,46.2,56,30.12,10.0,NW,3.5,-,N/A,,Clear,320,2012-09-22 13:55:00
9:15 AM,64.6,46.4,52,30.12,10.0,Calm,Calm,-,N/A,,Clear,0,2012-09-22 14:15:00
9:35 AM,66.0,45.7,48,30.12,10.0,North,3.5,-,N/A,,Clear,10,2012-09-22 14:35:00
9:55 AM,68.2,45.7,44,30.13,10.0,NE,3.5,-,N/A,,Clear,40,2012-09-22 14:55:00
10:15 AM,70.2,45.7,41,30.13,10.0,North,3.5,-,N/A,,Clear,360,2012-09-22 15:15:00
10:35 AM,71.8,45.1,38,30.14,10.0,NNW,3.5,-,N/A,,Clear,340,2012-09-22 15:35:00
10:55 AM,73.6,45.3,36,30.14,10.0,NNE,3.5,-,N/A,,Clear,30,2012-09-22 15:55:00
11:15 AM,75.7,45.3,34,30.15,10.0,NE,3.5,-,N/A,,Clear,40,2012-09-22 16:15:00
11:35 AM,77.0,44.2,31,30.14,10.0,NE,5.8,-,N/A,,Clear,40,2012-09-22 16:35:00
11:55 AM,79.2,44.2,29,30.14,10.0,ENE,4.6,-,N/A,,Clear,60,2012-09-22 16:55:00
12:15 PM,81.1,42.6,26,30.14,10.0,ENE,4.6,-,N/A,,Clear,60,2012-09-22 17:15:00
12:35 PM,82.0,42.3,24,30.14,10.0,ENE,3.5,-,N/A,,Clear,70,2012-09-22 17:35:00
12:55 PM,84.7,41.9,22,30.13,10.0,NE,5.8,-,N/A,,Clear,50,2012-09-22 17:55:00
1:15 PM,87.1,38.3,18,30.13,10.0,ENE,6.9,-,N/A,,Clear,70,2012-09-22 18:15:00
1:35 PM,87.8,37.2,17,30.12,10.0,East,5.8,-,N/A,,Clear,100,2012-09-22 18:35:00
1:55 PM,89.8,39.4,17,30.12,10.0,East,5.8,-,N/A,,Clear,90,2012-09-22 18:55:00
2:15 PM,91.4,37.6,15,30.11,10.0,East,6.9,-,N/A,,Clear,90,2012-09-22 19:15:00
2:35 PM,92.1,32.9,12,30.11,10.0,ESE,8.1,-,N/A,,Clear,110,2012-09-22 19:35:00
2:55 PM,92.7,30.6,11,30.10,10.0,ESE,10.4,-,N/A,,Clear,110,2012-09-22 19:55:00
3:15 PM,94.1,30.6,10,30.09,10.0,East,8.1,-,N/A,,Clear,80,2012-09-22 20:15:00
3:35 PM,94.3,30.0,10,30.09,10.0,ESE,8.1,-,N/A,,Clear,110,2012-09-22 20:35:00
3:55 PM,95.0,30.6,10,30.08,10.0,ESE,8.1,-,N/A,,Clear,110,2012-09-22 20:55:00
4:15 PM,95.2,31.8,11,30.07,10.0,East,12.7,18.4,N/A,,Clear,100,2012-09-22 21:15:00
4:35 PM,94.8,30.7,10,30.07,10.0,East,8.1,-,N/A,,Clear,100,2012-09-22 21:35:00
4:55 PM,95.0,30.6,10,30.06,10.0,East,12.7,-,N/A,,Clear,100,2012-09-22 21:55:00
5:15 PM,94.6,30.7,10,30.06,10.0,SE,9.2,21.9,N/A,,Clear,140,2012-09-22 22:15:00
5:35 PM,94.1,31.5,11,30.06,10.0,East,12.7,-,N/A,,Clear,80,2012-09-22 22:35:00
5:55 PM,93.4,30.6,11,30.06,10.0,East,11.5,-,N/A,,Clear,90,2012-09-22 22:55:00
6:15 PM,93.0,30.0,11,30.06,10.0,ESE,13.8,18.4,N/A,,Clear,110,2012-09-22 23:15:00
6:35 PM,91.9,29.3,11,30.06,10.0,ESE,12.7,-,N/A,,Clear,110,2012-09-22 23:35:00
6:55 PM,90.7,29.7,11,30.07,10.0,ESE,13.8,-,N/A,,Clear,110,2012-09-22 23:55:00
7:15 PM,88.9,29.7,12,30.07,10.0,ESE,10.4,-,N/A,,Clear,110,2012-09-23 00:15:00
7:35 PM,86.4,29.3,13,30.07,10.0,ESE,11.5,-,N/A,,Clear,110,2012-09-23 00:35:00
7:55 PM,83.5,29.3,14,30.09,10.0,ESE,9.2,-,N/A,,Clear,110,2012-09-23 00:55:00
8:15 PM,80.4,29.8,16,30.09,10.0,ESE,8.1,-,N/A,,Clear,110,2012-09-23 01:15:00
8:55 PM,75.2,31.8,20,30.10,10.0,ESE,6.9,-,N/A,,Clear,120,2012-09-23 01:55:00
9:15 PM,73.2,32.0,22,30.11,10.0,ESE,6.9,-,N/A,,Clear,110,2012-09-23 02:15:00
9:35 PM,71.2,32.5,24,30.12,10.0,ESE,8.1,-,N/A,,Clear,120,2012-09-23 02:35:00
9:55 PM,70.0,32.9,25,30.12,10.0,SE,6.9,-,N/A,,Clear,140,2012-09-23 02:55:00
10:15 PM,68.2,33.4,28,30.13,10.0,SE,8.1,-,N/A,,Clear,130,2012-09-23 03:15:00
10:35 PM,67.8,33.6,28,30.14,10.0,SE,8.1,-,N/A,,Clear,140,2012-09-23 03:35:00
10:55 PM,68.9,33.8,27,30.14,10.0,SE,8.1,-,N/A,,Clear,140,2012-09-23 03:55:00
11:15 PM,67.3,34.0,29,30.14,10.0,SE,8.1,-,N/A,,Clear,130,2012-09-23 04:15:00
11:35 PM,67.1,34.3,30,30.15,10.0,SE,9.2,-,N/A,,Clear,140,2012-09-23 04:35:00
11:55 PM,67.5,34.2,29,30.15,10.0,SE,8.1,-,N/A,,Clear,140,2012-09-23 04:55:00